Date String (YYYY-MM-DD hh:mm:ss) UTC,Instrument flags,Ambient pressure (hPa),Sample flow (lpm),Bypass flow (lpm),Sample temperature (°C),Ambient temperature (°C),ASC tube jacket temperature (°C),LED temperature (°C),Box temperature (°C),Sample RH (%),Span deviation,Mass concentration (μg/m³),Mass concentration (μg/m³),Mass concentration (μg/m³)
DateTimeUTC,F1_M11,P_M11,Q1_M11,Q2_M11,T1_M11,T2_M11,T3_M11,T4_M11,T5_M11,U1_M11,ZSPAN_M11,X0_M11,X2_M11,X1_M11
2022-12-18 15:00:00,,0819.9,4.95,0.00,22.1,20.5,00.0,30.9,23.8,05.9,0000.4,0009.78,0004.13,0003.37
2022-12-18 15:01:00,,0819.9,5.04,0.00,22.0,20.7,00.0,30.9,23.8,05.8,0000.4,0009.86,0004.13,0003.39
2022-12-18 15:02:00,,0819.9,4.99,0.00,22.1,21.6,00.0,30.9,24.0,05.9,0000.0,0010.53,0004.18,0003.41
2022-12-18 15:03:00,,0819.9,5.01,0.00,22.2,22.4,00.0,30.9,24.2,05.8,0000.1,0010.52,0004.19,0003.42
2022-12-18 15:04:00,,0819.8,4.97,0.00,22.3,22.2,00.0,30.9,24.2,05.8,0001.6,0010.87,0004.21,0003.43
2022-12-18 15:05:00,,0819.9,5.05,0.00,22.3,21.8,00.0,31.0,24.2,05.8,0000.0,0011.23,0004.28,0003.46
2022-12-18 15:06:00,,0819.9,4.96,0.00,22.3,21.5,00.0,31.0,24.1,06.0,0000.0,0011.42,0004.34,0003.49
2022-12-18 15:07:00,,0820.0,5.03,0.00,22.3,21.2,00.0,31.0,24.0,05.9,0000.0,0011.57,0004.34,0003.52
2022-12-18 15:08:00,,0819.9,4.98,0.00,22.2,21.0,00.0,31.0,24.0,06.1,0000.0,0011.82,0004.38,0003.55
2022-12-18 15:09:00,,0819.9,5.01,0.00,22.2,20.9,00.0,31.0,24.0,05.9,0000.0,0011.97,0004.42,0003.58
2022-12-18 15:10:00,,0819.8,5.03,0.00,22.2,20.8,00.0,31.0,24.0,05.8,0000.0,0011.98,0004.46,0003.61
2022-12-18 15:11:00,,0819.9,4.95,0.00,22.2,20.7,00.0,31.0,23.9,05.7,0000.0,0011.09,0004.49,0003.62
2022-12-18 15:12:00,,0820.0,5.03,0.00,22.2,20.6,00.0,31.0,23.9,05.7,0000.0,0011.24,0004.54,0003.65
2022-12-18 15:13:00,,0820.1,5.02,0.00,22.1,20.6,00.0,31.0,23.9,05.9,0000.0,0010.56,0004.55,0003.67
2022-12-18 15:14:00,,0820.0,4.98,0.00,22.1,20.5,00.0,31.0,23.8,06.1,0000.0,0010.36,0004.56,0003.69
2022-12-18 15:15:00,,0819.9,5.00,0.00,22.1,20.5,00.0,31.0,23.8,05.8,0000.0,0011.42,0004.61,0003.71
2022-12-18 15:16:00,,0820.0,5.03,0.00,22.1,21.2,00.0,30.9,24.0,05.8,0000.0,0011.56,0004.60,0003.72
2022-12-18 15:17:00,,0820.0,4.98,0.00,22.2,22.3,00.0,30.9,24.2,06.1,0000.0,0011.46,0004.56,0003.72
2022-12-18 15:18:00,,0820.0,5.03,0.00,22.3,22.4,00.0,31.0,24.3,05.9,0000.0,0011.11,0004.57,0003.72
2022-12-18 15:19:00,,0820.1,4.97,0.00,22.3,22.0,00.0,31.0,24.2,05.9,0000.0,0011.05,0004.60,0003.73
2022-12-18 15:20:00,,0820.1,5.03,0.00,22.3,21.6,00.0,31.1,24.2,06.0,0000.0,0011.02,0004.61,0003.72
2022-12-18 15:21:00,,0819.9,4.95,0.00,22.3,21.3,00.0,31.1,24.1,06.0,0000.0,0011.00,0004.58,0003.72
2022-12-18 15:22:00,,0820.0,5.05,0.00,22.3,21.1,00.0,31.1,24.1,05.9,0000.0,0012.47,0004.54,0003.72
2022-12-18 15:23:00,,0820.0,4.99,0.00,22.3,21.0,00.0,31.1,24.0,06.0,0000.0,0012.46,0004.53,0003.70
2022-12-18 15:24:00,,0819.9,4.98,0.00,22.3,20.9,00.0,31.1,24.0,06.0,0000.0,0012.55,0004.53,0003.69
2022-12-18 15:25:00,,0820.0,5.04,0.00,22.2,20.8,00.0,31.1,24.0,06.1,0000.0,0012.80,0004.53,0003.68
2022-12-18 15:26:00,,0820.1,4.96,0.00,22.2,20.7,00.0,31.1,23.9,06.3,0000.0,0011.51,0004.50,0003.65
2022-12-18 15:27:00,,0820.2,5.02,0.00,22.2,20.7,00.0,31.1,23.9,06.3,0000.0,0011.48,0004.54,0003.65
2022-12-18 15:28:00,,0820.2,5.02,0.00,22.2,20.6,00.0,31.1,23.9,06.3,0000.0,0011.59,0004.55,0003.64
2022-12-18 15:29:00,,0820.2,4.96,0.00,22.2,20.6,00.0,31.0,23.9,06.2,0000.0,0012.01,0004.57,0003.64
2022-12-18 15:30:00,,0820.1,5.03,0.00,22.2,20.9,00.0,31.0,23.9,06.3,0000.0,0011.97,0004.50,0003.64
2022-12-18 15:31:00,,0820.0,4.99,0.00,22.2,21.9,00.0,31.0,24.2,06.3,0000.0,0012.81,0004.50,0003.64
2022-12-18 15:32:00,,0820.1,5.00,0.00,22.4,22.5,00.0,31.0,24.3,06.0,0000.0,0013.09,0004.51,0003.64
2022-12-18 15:33:00,,0820.1,4.97,0.00,22.4,22.2,00.0,31.1,24.3,06.2,0000.0,0012.02,0004.47,0003.63
2022-12-18 15:34:00,,0820.0,5.04,0.00,22.4,21.8,00.0,31.1,24.2,06.5,0000.0,0012.00,0004.46,0003.64
2022-12-18 15:35:00,,0820.0,4.97,0.00,22.4,21.5,00.0,31.1,24.2,06.5,0000.0,0012.53,0004.48,0003.65
2022-12-18 15:36:00,,0820.2,5.02,0.00,22.4,21.3,00.0,31.1,24.1,06.4,0000.0,0012.52,0004.48,0003.65
2022-12-18 15:37:00,,0820.2,4.97,0.00,22.3,21.1,00.0,31.1,24.1,06.5,0000.5,0012.73,0004.49,0003.66
2022-12-18 15:38:00,,0820.2,4.99,0.00,22.3,21.0,00.0,31.1,24.1,06.6,0001.3,0013.17,0004.47,0003.65
2022-12-18 15:39:00,,0820.2,5.04,0.00,22.3,20.9,00.0,31.1,24.0,06.6,0000.1,0013.32,0004.47,0003.64
2022-12-18 15:40:00,,0820.2,5.00,0.00,22.3,20.8,00.0,31.1,24.0,06.7,0000.0,0013.56,0004.40,0003.63
2022-12-18 15:41:00,,0820.2,4.98,0.00,22.3,20.8,00.0,31.1,24.0,06.7,0000.0,0013.65,0004.39,0003.62
2022-12-18 15:42:00,,0820.2,5.03,0.00,22.2,20.7,00.0,31.1,24.0,06.7,0000.0,0013.22,0004.39,0003.61
2022-12-18 15:43:00,,0820.2,4.95,0.00,22.2,20.7,00.0,31.1,23.9,06.6,0000.0,0013.10,0004.41,0003.61
2022-12-18 15:44:00,,0820.2,5.03,0.00,22.2,20.8,00.0,31.1,23.9,06.1,0000.0,0012.63,0004.40,0003.60
2022-12-18 15:45:00,,0820.3,5.02,0.00,22.3,21.7,00.0,31.0,24.1,06.0,0000.0,0013.05,0004.39,0003.58
2022-12-18 15:46:00,,0820.3,4.99,0.00,22.4,22.6,00.0,31.1,24.4,06.1,0000.0,0012.96,0004.38,0003.56
2022-12-18 15:47:00,,0820.2,4.98,0.00,22.5,22.4,00.0,31.1,24.4,05.8,0000.0,0012.24,0004.32,0003.54
2022-12-18 15:48:00,,0820.2,5.06,0.00,22.5,22.1,00.0,31.2,24.4,05.6,0000.0,0011.95,0004.25,0003.50
2022-12-18 15:49:00,,0820.2,4.97,0.00,22.5,21.7,00.0,31.2,24.3,05.6,0000.0,0011.43,0004.17,0003.46
2022-12-18 15:50:00,,0820.2,5.00,0.00,22.4,21.5,00.0,31.2,24.2,05.7,0000.0,0011.37,0004.09,0003.42
2022-12-18 15:51:00,,0820.2,4.98,0.00,22.4,21.3,00.0,31.2,24.2,06.1,0000.0,0010.45,0004.08,0003.41
2022-12-18 15:52:00,,0820.3,5.04,0.00,22.4,21.1,00.0,31.2,24.2,05.7,0000.0,0010.18,0004.05,0003.37
2022-12-18 15:53:00,,0820.3,4.95,0.00,22.4,21.0,00.0,31.2,24.1,05.9,0000.0,0009.93,0003.99,0003.32
2022-12-18 15:54:00,,0820.3,5.03,0.00,22.4,21.0,00.0,31.2,24.1,05.9,0000.0,0009.39,0003.87,0003.25
2022-12-18 15:55:00,,0820.3,4.97,0.00,22.3,20.9,00.0,31.2,24.1,06.1,0000.0,0009.23,0003.83,0003.22
2022-12-18 15:56:00,,0820.3,5.02,0.00,22.3,20.9,00.0,31.2,24.1,06.1,0000.0,0008.59,0003.78,0003.18
2022-12-18 15:57:00,,0820.3,5.03,0.00,22.3,20.8,00.0,31.2,24.0,06.0,0000.0,0008.02,0003.68,0003.12
2022-12-18 15:58:00,,0820.2,4.96,0.00,22.3,20.8,00.0,31.2,24.0,06.1,0000.0,0008.48,0003.66,0003.07
2022-12-18 15:59:00,,0820.2,5.04,0.00,22.3,20.8,00.0,31.2,24.0,06.2,0000.0,0008.59,0003.64,0003.03
